Location: *
(43.5667°S, 166.6333°W)
Time: 13:47:46
(UTC+00:00)

Daily predictions for brighter satellites

Satellite Brightness Start Highest point End
(mag) Time Altitude Azimuth Time Altitude Azimuth Time Altitude Azimuth
Cosmos 2360 Rocket 4.4 13:42:04 21° SE 13:42:04 21° SE 13:43:54 10° SSE
Cosmos 2322 Rocket 4.5 13:48:21 18° SSE 13:48:21 18° SSE 13:49:43 10° SSE
Cosmos 2333 Rocket 3.9 14:00:54 30° ESE 14:00:54 30° ESE 14:04:39 10° SE
Cosmos 2278 Rocket 4.4 14:07:43 10° S 14:12:07 22° SE 14:16:31 10° E
H-2A R/B 4.3 14:19:34 10° SE 14:22:12 25° ESE 14:22:12 25° ESE
SL-16 R/B 3.7 14:29:18 10° S 14:32:51 33° SSW 14:32:51 33° SSW
Cosmos 2219 Rocket 2.7 14:36:24 56° ESE 14:36:24 56° ESE 14:41:10 10° SSE
CZ-4C R/B 3.5 14:37:07 42° SSW 14:37:07 42° SSW 14:42:36 10° SSE
USA 229 DEB 3.4 14:51:53 84° NW 14:51:53 84° NW 14:58:24 10° NNE
USA 229 3.4 14:51:55 84° WNW 14:51:59 84° NW 14:58:30 10° NNE
Cosmos 1634 Rocket 4.3 14:54:00 53° SSW 14:54:00 53° SSW 14:59:02 10° S
Cosmos 2322 4.3 15:01:29 46° SSW 15:01:29 46° SSW 15:05:54 10° SSE
NOSS 3-1 (A) 3.3 14:59:50 48° SSW 15:01:36 79° SE 15:07:07 10° NE
COSMOS 2428 2.6 15:03:29 85° SW 15:03:29 85° SW 15:09:13 10° SSE
FENGYUN 3A 3.9 15:00:15 10° NNE 15:05:37 68° ESE 15:11:04 10° S
USA 215 3.4 15:04:54 10° ENE 15:11:27 71° SE 15:15:26 26° SW
ISS -1.6 15:12:27 27° SE 15:12:27 27° SE 15:14:43 10° E
Cosmos 1420 Rocket 4.2 15:07:23 10° SSW 15:12:45 74° ESE 15:18:04 10° NNE
Cosmos 2142 Rocket 4.4 15:13:19 61° WSW 15:13:19 61° WSW 15:19:24 10° S
STARLINK-1079 4.4 15:20:33 43° NNE 15:20:33 43° NNE 15:23:28 10° NE
NOSS 2-3 (C) 4.2 15:15:43 20° SW 15:20:42 89° WNW 15:26:01 10° NE
Meteor 1-21 4.2 15:15:47 10° S 15:21:33 86° ESE 15:27:18 10° N
ALOS 2.2 15:17:18 10° NNE 15:22:01 90° ESE 15:26:48 10° SSW
SL-16 R/B 4.3 15:23:19 12° SSW 15:23:19 12° SSW 15:24:40 10° SSW
Cosmos 2360 Rocket 3.7 15:23:51 22° SSW 15:23:51 22° SSW 15:27:15 10° S
STARLINK-1116 4.3 15:25:22 46° NNE 15:25:22 46° NNE 15:28:27 10° NE
STARLINK-1236 4.5 15:26:43 40° S 15:26:43 40° S 15:30:17 10° SE
Cosmos 1975 4.4 15:28:51 25° SSW 15:28:51 25° SSW 15:30:46 10° S
Cosmos 1655 Rocket 3.9 15:21:01 10° S 15:27:30 81° W 15:33:56 10° N
NOSS 3-1 (C) 4.0 15:29:27 34° NNW 15:29:27 34° NNW 15:32:49 10° N
SL-08 R/B 4.3 15:24:27 10° S 15:27:26 32° SSW 15:27:26 32° SSW
Cosmos 2322 Rocket 4.3 15:30:10 12° SSW 15:30:10 12° SSW 15:31:48 10° SSW
STARLINK-1094 4.1 15:34:55 48° N 15:34:55 48° N 15:38:18 10° NE
STARLINK-1269 4.5 15:36:16 37° SSW 15:36:16 37° SSW 15:40:13 10° SE
STARLINK-1102 4.5 15:35:12 35° SSW 15:36:28 46° SSE 15:40:32 10° E
CZ-4B DEB 4.3 15:31:10 10° NNE 15:36:46 83° ESE 15:42:26 10° SSW
BREEZE-M DEB (TANK) 3.7 15:37:04 33° S 15:37:36 35° SSE 15:42:48 10° E
Cosmos 2279 Rocket 4.2 15:36:47 41° WNW 15:38:17 48° WSW 15:44:25 10° S
STARLINK-1117 4.0 15:39:42 47° NNW 15:39:42 47° NNW 15:43:14 10° NNE
Cosmos 1048 Rocket 4.5 15:34:59 10° N 15:40:16 63° ENE 15:45:33 10° SSE
STARLINK-1111 4.4 15:39:58 33° SSW 15:41:27 49° SSE 15:45:32 10° ENE
Cosmos 2333 Rocket 2.7 15:42:57 37° WSW 15:43:38 39° SW 15:49:04 10° SSE
STARLINK-1078 4.0 15:44:30 45° NNW 15:44:30 45° NNW 15:48:09 10° NNE
Cosmos 1300 Rocket 3.4 15:41:52 26° NNW 15:44:21 79° W 15:48:54 10° S
Cosmos 2237 Rocket 2.2 15:41:08 17° NNW 15:45:41 84° ENE 15:51:28 10° SSE
STARLINK-1073 4.3 15:44:44 31° SSW 15:46:25 52° SSE 15:50:32 10° ENE
STARLINK-1108 4.1 15:49:18 42° NW 15:49:18 42° NW 15:53:04 10° NNE
PSLV R/B 3.7 15:46:43 10° N 15:50:31 56° W 15:54:17 10° SSW
STARLINK-1121 4.2 15:49:31 29° SW 15:51:25 56° SSE 15:55:34 10° ENE
SL-8 R/B 4.2 15:51:02 30° SW 15:53:14 55° SSE 15:58:03 10° E
Cosmos 1242 Rocket 3.1 15:49:49 10° S 15:53:30 59° ESE 15:57:05 10° NNE
STARLINK-1071 4.2 15:54:05 38° NW 15:54:05 38° NW 15:57:57 10° NNE
STARLINK-1106 4.1 15:54:19 27° SW 15:56:26 60° SSE 16:00:36 10° ENE
Cosmos 2278 Rocket 2.1 15:51:04 10° SSW 15:56:44 67° WNW 16:02:21 10° NNE
STARLINK-1110 4.3 15:58:53 35° NW 15:59:02 35° NW 16:02:50 10° NNE
H-2A R/B 3.1 15:55:31 10° S 15:59:18 29° WSW 15:59:18 29° WSW
CZ-4B R/B 3.4 15:53:56 10° NNE 15:59:37 82° ESE 16:05:20 10° SSW
Cosmos 1452 Rocket 3.5 15:56:04 10° SSW 16:01:18 60° WNW 16:06:29 10° N
STARLINK-1112 4.0 15:59:06 25° SW 16:01:25 64° SSE 16:05:36 10° ENE
Okean 2 Rocket 3.5 16:00:00 31° WNW 16:01:34 43° WSW 16:05:55 10° S
NOSS 0 Rocket 4.0 15:57:14 20° NW 16:01:36 63° WSW 16:07:51 10° SSE
CZ-4B R/B 1.2 15:59:41 10° S 16:03:04 75° WSW 16:05:52 15° NNW
Cosmos 2151 Rocket 3.6 15:58:47 10° NNW 16:03:14 60° W 16:07:46 10° S
Meteor 1-12 Rocket 4.2 15:57:51 10° NNW 16:03:33 71° WSW 16:09:17 10° S
Abrixas rocket 2.5 16:03:38 41° SW 16:03:57 43° SSW 16:06:52 10° ESE
STARLINK-1124 4.4 16:03:38 32° NW 16:03:57 32° NW 16:07:42 10° NNE
Helios 1A Rocket 4.2 16:00:04 10° NE 16:04:01 44° ESE 16:08:02 10° S
STARLINK-1128 3.9 16:03:53 23° SW 16:06:24 69° SSE 16:10:36 10° ENE
NOAA 6 4.0 16:02:47 10° N 16:07:58 74° WNW 16:13:15 10° SSW
CRYOSAT 2 4.4 16:03:59 10° N 16:08:51 59° W 16:13:47 10° SSW
H-2A R/B 3.4 16:05:10 10° NNE 16:09:02 60° ESE 16:12:56 10° S
Okean O Rocket 1.6 16:06:24 10° NNE 16:10:55 84° WNW 16:15:27 10° SSW
STARLINK-1113 3.8 16:08:42 21° SW 16:11:25 75° SSE 16:15:37 10° ENE
Cosmos 1110 Rocket 4.4 16:07:24 10° SSW 16:12:45 68° ESE 16:18:03 10° NNE
Cosmos 1356 3.6 16:11:32 23° NW 16:13:25 47° WSW 16:16:51 10° S
STARLINK-1119 3.7 16:13:27 19° SW 16:16:23 80° SE 16:20:35 10° ENE
Cosmos 1707 2.9 16:16:10 10° SSW 16:19:57 46° W 16:23:40 10° NNW
Cosmos 2219 Rocket 3.4 16:18:10 20° WSW 16:19:58 23° SW 16:24:26 10° S
STARLINK-1114 3.6 16:18:14 18° SW 16:21:21 86° SE 16:25:33 10° NE
Cosmos 1689 Rocket 2.0 16:21:10 10° S 16:24:16 77° WSW 16:27:20 10° NNW
STARLINK-1130 (DARKSAT) 3.6 16:23:01 16° SW 16:26:20 87° NW 16:30:33 10° NE
CZ-4C R/B 4.4 16:22:19 11° WSW 16:26:23 17° SSW 16:30:24 10° SSE
Cosmos 1271 Rocket 2.9 16:26:01 10° SSW 16:30:03 56° W 16:34:00 10° N
Cosmos 1805 4.2 16:26:23 10° N 16:30:13 53° E 16:34:07 10° SSE
Cosmos 1025 Rocket 3.8 16:26:42 10° SSW 16:30:38 31° W 16:34:34 10° NNW
STARLINK-1084 3.6 16:27:49 15° WSW 16:31:19 81° NW 16:35:31 10° NE
YAOGAN 6 3.9 16:31:40 10° NE 16:35:05 44° ESE 16:38:31 10° S
Cosmos 371 Rocket 3.8 16:31:22 10° SW 16:35:51 36° WNW 16:40:16 10° NNW
STARLINK-1098 3.6 16:32:35 13° WSW 16:36:18 75° NW 16:40:28 10° NE
SL-4 R/B 3.6 16:33:18 10° NNW 16:37:49 41° NE 16:42:25 10° ESE
IRS-1C Rocket 4.4 16:34:59 10° NNE 16:40:15 75° ESE 16:45:36 10° S
STARLINK-1123 3.7 16:37:22 12° WSW 16:41:15 68° NW 16:45:25 10° NE
Okean 1 Rocket 3.3 16:39:18 10° NNW 16:43:41 50° WSW 16:48:10 10° S
STARLINK-1097 3.7 16:42:09 11° WSW 16:46:13 63° NW 16:50:22 10° NE
KORONAS-FOTON 4.0 16:42:35 10° S 16:46:37 85° ESE 16:50:35 10° N
CORIOLIS 4.2 16:42:02 10° NNE 16:47:26 85° WNW 16:52:53 10° SSW
COSMOS 2428 4.3 16:45:32 12° W 16:48:36 17° SW 16:52:13 10° S
ISS -3.6 16:45:27 12° WSW 16:48:39 61° NW 16:52:03 10° NE
Cosmos 1302 Rocket 4.5 16:43:25 10° SSW 16:48:41 66° ESE 16:53:51 10° NNE
Cosmos 1980 4.5 16:44:04 10° WNW 16:49:05 32° SW 16:54:10 10° S
STARLINK-1099 3.8 16:47:03 10° WSW 16:51:12 57° NW 16:55:18 10° NE
Cosmos 494 Rocket 4.1 16:46:24 10° NW 16:51:31 54° WSW 16:56:40 10° SSE
USA 215 3.9 16:48:45 10° NNE 16:54:43 37° NW 17:00:46 10° WSW
STARLINK-1104 3.9 16:52:02 10° WSW 16:56:09 52° NW 17:00:13 10° NE
Meteor 1-24 Rocket 4.3 16:52:02 10° S 16:58:05 74° ESE 17:04:10 10° NNE
Envisat 3.0 16:53:50 10° N 16:58:56 72° WNW 17:04:07 10° SSW
Feng Yun 1-1 Rocket 4.4 16:53:21 10° N 16:59:14 76° WNW 17:05:16 10° SSW
Okean-O 3.3 16:55:06 10° NNE 16:59:30 62° ESE 17:03:59 10° S
STARLINK-1144 4.0 16:57:02 10° WSW 17:01:06 48° NW 17:05:07 10° NNE
SMAP 3.4 17:01:05 10° N 17:05:34 44° W 17:10:06 10° SSW
STARLINK-1103 4.2 17:02:03 10° WSW 17:06:05 43° NW 17:10:04 10° NNE
SL-16 R/B 2.3 17:02:00 10° NW 17:07:37 60° WSW 17:13:20 10° SSE
CZ-3 R/B 4.0 16:56:45 10° W 17:13:44 27° NW 17:20:16 10° NNE
